Weather History for ESNN - July, 2013

Change the Weather History Date:

Wednesday, July 3, 2013

  Actual Average Record
Temperature  
Mean Temperature 62 °F -  
Max Temperature 70 °F - - ()
Min Temperature 53 °F - - ()
Degree Days  
Heating Degree Days 3    
Growing Degree Days 12 (Base 50)    
Moisture  
Dew Point 50 °F    
Average Humidity 65    
Maximum Humidity 88    
Minimum Humidity 35    
Precipitation  
Precipitation 0.00 in - - ()
Sea Level Pressure  
Sea Level Pressure 29.83 in    
Wind  
Wind Speed 8 mph ()    
Max Wind Speed 18 mph    
Max Gust Speed -    
Visibility 8.1 miles    
Events Rain    
T = Trace of Precipitation, MM = Missing Value Source: Averaged Metar Reports

Daily Weather History Graph

Daily Weather History Graph

Search for Another Location

Airport or City:

Trip Planner

Search our weather history database for the weather conditions in past years. The results will help you decide how hot, cold, wet, or windy it might be!

Date:

Astronomy

Jul. 03, 2013 Rise Set
Actual Time 3:02 AM CEST 10:45 PM CEST
Civil Twilight 1:26 AM CEST 12:22 AM CEST
Nautical Twilight Sun does not rise Sun does not rise
Astronomical Twilight Sun does not rise Sun does not rise
Moon 12:34 AM CEST (7/3) 5:48 PM CEST (7/3)
Length of Visible Light 22h 55m
Length of Day
19h 43m
Waning Crescent, 20% of the Moon is Illuminated
Jul 3
Waning Crescent
Jul 8
New
Jul 16
First Quarter
Jul 22
Full
Jul 29
Last Quarter

Hourly Weather History & Observations

Time (CEST) Temp. Dew Point Humidity Pressure Visibility Wind Dir Wind Speed Gust Speed Precip Events Conditions
12:00 AM 59 °F 51 °F 67% 29.77 in 28 mi SSE 6.7 mph - -   Partly Cloudy
12:20 AM 59.0 °F 50.0 °F 72% 29.77 in 6.2 mi SSE 6.9 mph - N/A   Mostly Cloudy
12:50 AM 57.2 °F 50.0 °F 77% 29.77 in - SSE 6.9 mph - N/A   Clear
1:00 AM 59 °F 48 °F 59% 29.78 in 28 mi South 6.7 mph - -   Mostly Cloudy
1:20 AM 59.0 °F 48.2 °F 67% 29.77 in - South 6.9 mph - N/A   Clear
1:50 AM 59.0 °F 46.4 °F 63% 29.77 in - South 5.8 mph - N/A   Clear
2:00 AM 58 °F 47 °F 58% 29.78 in 28 mi South 6.7 mph - -   Mostly Cloudy
2:20 AM 57.2 °F 48.2 °F 72% 29.77 in 6.2 mi SSE 3.5 mph - N/A   Overcast
2:50 AM 59.0 °F 48.2 °F 67% 29.77 in 6.2 mi SSE 4.6 mph - N/A   Overcast
3:00 AM 58 °F 48 °F 60% 29.78 in 28 mi South 4.5 mph - -   Scattered Clouds
3:20 AM 57.2 °F 48.2 °F 72% 29.77 in 6.2 mi South 5.8 mph - N/A   Mostly Cloudy
3:50 AM 55.4 °F 48.2 °F 77% 29.77 in 6.2 mi Variable 2.3 mph - N/A   Mostly Cloudy
4:00 AM 54 °F 48 °F 74% 29.79 in 28 mi ESE 4.5 mph - -   Mostly Cloudy
4:20 AM 55.4 °F 48.2 °F 77% 29.77 in 6.2 mi ESE 4.6 mph - N/A   Scattered Clouds
4:50 AM 55.4 °F 50.0 °F 82% 29.80 in 6.2 mi SE 6.9 mph - N/A   Unknown
5:20 AM 57.2 °F 50.0 °F 77% 29.80 in 6.2 mi ESE 6.9 mph - N/A   Mostly Cloudy
5:50 AM 57.2 °F 50.0 °F 77% 29.80 in - ESE 6.9 mph - N/A   Clear
6:00 AM 56 °F 49 °F 71% 29.80 in 25 mi SE 6.7 mph - -   Partly Cloudy
6:20 AM 57.2 °F 50.0 °F 77% 29.80 in - SE 6.9 mph - N/A   Clear
6:50 AM 59.0 °F 50.0 °F 72% 29.80 in - South 6.9 mph - N/A   Clear
7:00 AM 59 °F 49 °F 60% 29.81 in 22 mi South 6.7 mph - -  
7:20 AM 59.0 °F 48.2 °F 67% 29.80 in - South 8.1 mph - N/A   Clear
7:50 AM 60.8 °F 50.0 °F 68% 29.80 in - South 9.2 mph - N/A   Clear
8:00 AM 61 °F 50 °F 59% 29.82 in 12 mi SSW 6.7 mph - -   Partly Cloudy
8:20 AM 60.8 °F 50.0 °F 68% 29.80 in - South 9.2 mph - N/A   Clear
8:50 AM 60.8 °F 50.0 °F 68% 29.83 in 6.2 mi South 8.1 mph - N/A   Mostly Cloudy
9:00 AM 62 °F 50 °F 56% 29.83 in 19 mi South 8.9 mph - -   Scattered Clouds
9:20 AM 60.8 °F 50.0 °F 68% 29.83 in - South 9.2 mph - N/A   Clear
9:50 AM 62.6 °F 50.0 °F 63% 29.83 in - South 6.9 mph - N/A   Clear
10:00 AM 63 °F 49 °F 49% 29.83 in 25 mi SSW 8.9 mph - -   Scattered Clouds
10:20 AM 62.6 °F 48.2 °F 59% 29.83 in - South 10.4 mph - N/A   Clear
10:50 AM 62.6 °F 51.8 °F 68% 29.83 in 6.2 mi SE 9.2 mph - N/A   Mostly Cloudy
11:20 AM 62.6 °F 51.8 °F 68% 29.83 in 6.2 mi East 9.2 mph - N/A   Mostly Cloudy
11:50 AM 62.6 °F 46.4 °F 55% 29.83 in 6.2 mi SE 9.2 mph - N/A   Partly Cloudy
12:00 PM 65 °F 51 °F 51% 29.85 in 17 mi SE 8.9 mph - - Rain Rain
12:20 PM 64.4 °F 51.8 °F 64% 29.83 in 6.2 mi SE 16.1 mph - N/A   Partly Cloudy
12:50 PM 64.4 °F 51.8 °F 64% 29.83 in 6.2 mi SE 16.1 mph - N/A   Mostly Cloudy
1:00 PM 64 °F 51 °F 53% 29.85 in 19 mi SSE 13.4 mph - -   Scattered Clouds
1:20 PM 62.6 °F 50.0 °F 63% 29.83 in 6.2 mi SSE 18.4 mph - N/A   Scattered Clouds
1:50 PM 66.2 °F 51.8 °F 60% 29.83 in - SE 18.4 mph - N/A   Clear
2:00 PM 65 °F 51 °F 50% 29.85 in 25 mi SSE 13.4 mph - -  
2:20 PM 66.2 °F 51.8 °F 60% 29.83 in 6.2 mi SE 17.3 mph - N/A   Partly Cloudy
2:50 PM 64.4 °F 50.0 °F 59% 29.83 in 6.2 mi SE 16.1 mph - N/A   Partly Cloudy
3:00 PM 67 °F 52 °F 49% 29.85 in 22 mi SE 13.4 mph - -   Scattered Clouds
3:20 PM 64.4 °F 50.0 °F 59% 29.83 in 6.2 mi SE 15.0 mph - N/A   Mostly Cloudy
3:50 PM 66.2 °F 51.8 °F 60% 29.86 in - SE 17.3 mph - N/A   Clear
4:20 PM 64.4 °F 51.8 °F 64% 29.86 in - SE 15.0 mph - N/A   Clear
4:50 PM 66.2 °F 51.8 °F 60% 29.86 in - SE 13.8 mph - N/A   Clear
5:20 PM 69.8 °F 48.2 °F 46% 29.86 in - Variable 9.2 mph - N/A   Clear
5:50 PM 68.0 °F 48.2 °F 49% 29.86 in - SW 9.2 mph - N/A   Clear
6:00 PM 69 °F 47 °F 35% 29.88 in 28 mi SSW 11.2 mph - -   Mostly Cloudy
6:20 PM 68.0 °F 48.2 °F 49% 29.86 in - South 10.4 mph - N/A   Clear
6:50 PM 66.2 °F 48.2 °F 52% 29.86 in - South 8.1 mph - N/A   Clear
7:00 PM 64 °F 52 °F 55% 29.89 in 31 mi SSE 8.9 mph - -   Partly Cloudy
7:20 PM 62.6 °F 51.8 °F 68% 29.89 in - SE 13.8 mph - N/A   Clear
7:50 PM 62.6 °F 51.8 °F 68% 29.89 in - SE 10.4 mph - N/A   Clear
8:00 PM 63 °F 52 °F 58% 29.89 in 25 mi SE 8.9 mph - -   Scattered Clouds
8:20 PM 62.6 °F 51.8 °F 68% 29.89 in - ESE 10.4 mph - N/A   Clear
8:50 PM 62.6 °F 51.8 °F 68% 29.89 in - SE 10.4 mph - N/A   Clear
9:00 PM 62 °F 53 °F 63% 29.91 in 31 mi SE 8.9 mph - -  
9:20 PM 60.8 °F 53.6 °F 77% 29.89 in - SE 8.1 mph - N/A   Clear
9:50 PM 59.0 °F 51.8 °F 77% 29.92 in - ESE 6.9 mph - N/A   Clear
10:00 PM 59 °F 51 °F 67% 29.92 in 31 mi SE 4.5 mph - -  
10:20 PM 57.2 °F 50.0 °F 77% 29.92 in - SE 4.6 mph - N/A   Clear
10:50 PM 59.0 °F 50.0 °F 72% 29.92 in - SE 5.8 mph - N/A   Clear
11:20 PM 55.4 °F 50.0 °F 82% 29.92 in - Variable 2.3 mph - N/A   Clear
11:50 PM 53.6 °F 50.0 °F 88% 29.92 in - Calm Calm - N/A   Clear